Regional Weather Roundup
Issued by NWS

Home | Current Version | Previous Version | Graphics & Text | Print | Product List | Glossary On
Versions: 1 2 3 4 5 6 7 8 9 10 11 12 13 14 15 16 17 18 19 20 21 22 23 24 25 26 27 28 29 30 31 32 33 34 35 36 37 38 39 40 41 42 43 44 45 46 47 48 49 50
000
ASUS43 KDTX 231301
RWRMI
MICHIGAN HOURLY REGIONAL WEATHER ROUNDUP
NATIONAL WEATHER SERVICE DETROIT/PONTIAC MI
900 AM EDT TUE AUG 23 2016

NOTE: "FAIR" INDICATES FEW OR NO CLOUDS BELOW 12,000 FEET WITH NO
SIGNIFICANT WEATHER AND/OR OBSTRUCTION TO VISIBILITY.

MIZ047>049-052>055-059>063-066>070-074>076-081>083-231400-
SOUTHEAST LOWER MICHIGAN

CITY           SKY/WX    TMP DP  RH WIND       PRES   REMARKS
ADRIAN         SUNNY     62  59  90 CALM      30.29S
ALMA           SUNNY     64  61  90 SW5G17    30.24S
ANN ARBOR      SUNNY     64  59  83 S3        30.27F
BAD AXE        SUNNY     65  57  75 SW7       30.20F
CARO           SUNNY     65  58  80 SW7       30.22S
DETROIT CITY   SUNNY     68  57  68 SW5       30.27F
DETROIT        MOSUNNY   67  57  70 S8        30.28F
FLINT          SUNNY     69  57  65 S7        30.25F
GROSSE ILE     SUNNY     68  56  64 SW6       30.27F
HILLSDALE      SUNNY     64  58  80 S3        30.28S
HOWELL         SUNNY     66  58  77 SW5       30.26S

CITY           SKY/WX    TMP DP  RH WIND       PRES   REMARKS
JACKSON        SUNNY     67  58  72 SW6       30.27S
LAMBERTVILLE   SUNNY     67  58  74 CALM      30.28F
LANSING        SUNNY     66  56  70 S6        30.26S
LAPEER         NOT AVBL
MASON          SUNNY     64  58  81 S3        30.26S
MONROE         SUNNY     65  59  80 SW3       30.28S
MT. CLEMENS    MOSUNNY   70  57  64 SW7       30.24F
PONTIAC        MOSUNNY   67  56  67 SW5       30.26S
PORT HURON     SUNNY     64  59  82 SW5       30.27S
TRI CITIES     SUNNY     65  59  81 SW8       30.23S
MIDLAND        FAIR      65  58  78 SW9       30.21S
TROY           SUNNY     68  55  64 SW5       30.29S
SAGINAW HB     SUNNY     64  55  72 SW9       30.23R
$$
MIZ043>046-050>051-056>058-064>065-071>073-077>080-231400-
SOUTHWEST LOWER MICHIGAN

CITY           SKY/WX    TMP DP  RH WIND       PRES   REMARKS
BATTLE CREEK   SUNNY     63  59  87 S6        30.26S
BENTON HARBOR  SUNNY     66  58  75 S7        30.23S
BIG RAPIDS     SUNNY     65  62  91 S3        30.22R
COLDWATER      SUNNY     65  60  85 CALM      30.27S
FREMONT        FAIR      65  61  86 S5        30.21R
HOLLAND        SUNNY     65  59  81 S6        30.23S
GRAND RAPIDS   PTSUNNY   65  57  75 S10       30.24S
IONIA          FAIR      64  56  76 S5        30.24R
KALAMAZOO      SUNNY     65  57  75 S7        30.26S
LUDINGTON      SUNNY     65  61  86 SE5       30.18S
MARSHALL       SUNNY     64  59  82 CALM      30.26S
MOUNT PLEASANT SUNNY     67  59  74 SW8       30.21S
MUSKEGON       PTSUNNY   69  62  78 S8        30.21R
SOUTH HAVEN    SUNNY     66  61  84 S3        30.23S
$$
MIZ016>042-231400-
NORTHERN LOWER MICHIGAN

CITY           SKY/WX    TMP DP  RH WIND       PRES   REMARKS
ALPENA         SUNNY     68  59  73 SW7       30.17R
BEAVER ISLAND  SUNNY     72  64  74 SW13G24   30.11R
BELLAIRE       SUNNY     69  61  75 S6        30.15F
CADILLAC       SUNNY     65  58  80 SW9       30.20S
CHARLEVOIX     SUNNY     71  62  74 SW9G16    30.15S
FRANKFORT      SUNNY     71  63  76 S10G16    30.16R
GAYLORD        SUNNY     68  58  70 SW13      30.17R
GRAYLING       SUNNY     67  61  79 W3        30.19R
HARBOR SPRINGS SUNNY     70  62  77 SW9       30.13S
HOUGHTON LAKE  SUNNY     66  58  75 SW8       30.20R
MANISTEE       SUNNY     67  61  81 CALM      30.18R
OSCODA         SUNNY     65  58  75 SW7       30.18R
PELLSTON       SUNNY     71  60  68 SW13      30.13R
ROGERS CITY    SUNNY     67  59  73 S6        30.15S
TRAVERSE CITY  MOSUNNY   71  61  70 VRB6      30.14R
$$
MIZ007>008-015-231400-
EASTERN UPPER MICHIGAN

CITY           SKY/WX    TMP DP  RH WIND       PRES   REMARKS
KINROSS        SUNNY     72  63  73 SW9G17    30.09S
MACKINAC ISLAN SUNNY     71  63  74 SW15G22   30.10S
NEWBERRY       SUNNY     70  62  76 SW10G18   30.08S
S. S. MARIE    PTSUNNY   72  63  73 SW13G22   30.07S
MUNISING         N/A     69  61  75 SW14G21   30.04R
$$
MIZ004>006-011>014-085-231400-
CENTRAL UPPER MICHIGAN

CITY           SKY/WX    TMP DP  RH WIND       PRES   REMARKS
MANISTIQUE     MOSUNNY   69  64  85 SW6       30.08R
ESCANABA       SUNNY     68  61  78 SW12      30.08S
MENOMINEE      SUNNY    N/A N/A N/A SW9       30.12R
SAWYER-GWINN   SUNNY     63  59  88 SW10      30.07S
$$
MIZ001>003-009>011-084-231400-
WESTERN UPPER MICHIGAN

CITY           SKY/WX    TMP DP  RH WIND       PRES   REMARKS
IRON MOUNTAIN  SUNNY     63  58  83 S8        30.09R
HOUGHTON       CLOUDY    68  61  78 SW5       29.98S
COPPER HARBOR    N/A     70  62  76 W6        29.95S
IRONWOOD       SUNNY     68  60  75 SW12      29.99S
$$

ABBREVIATIONS USED IN REMARKS
   TC - TEMPERATURE IN CELSIUS
  WCI - WIND CHILL INDEX
   HX - HEAT INDEX
  VSB - VISIBILITY





USA.gov is the U.S. government's official web portal to all federal, state and local government web resources and services.